Weather History for PAHO - September, 2012

Change the Weather History Date:

Monday, September 24, 2012

  Actual Average Record
Temperature  
Mean Temperature 46 °F -  
Max Temperature 53 °F 52 °F 63 °F (1952)
Min Temperature 39 °F 37 °F 23 °F (1956)
Degree Days  
Heating Degree Days 20    
Moisture  
Dew Point 36 °F    
Average Humidity 68    
Maximum Humidity 79    
Minimum Humidity 54    
Precipitation  
Precipitation 0.00 in - - ()
Sea Level Pressure  
Sea Level Pressure 29.86 in    
Wind  
Wind Speed 10 mph (SE)    
Max Wind Speed 14 mph    
Max Gust Speed 22 mph    
Visibility 10 miles    
Events Rain    
Averages and records for this station are not official NWS values.
T = Trace of Precipitation, MM = Missing Value Source: NWS Daily Summary

Daily Weather History Graph

Daily Weather History Graph

Search for Another Location

Airport or City:

Trip Planner

Search our weather history database for the weather conditions in past years. The results will help you decide how hot, cold, wet, or windy it might be!

Date:

Astronomy

Sep. 24, 2012 Rise Set
Actual Time 7:56 AM AKDT 7:57 PM AKDT
Civil Twilight 7:15 AM AKDT 8:38 PM AKDT
Nautical Twilight 6:26 AM AKDT 9:27 PM AKDT
Astronomical Twilight 5:33 AM AKDT 10:19 PM AKDT
Moon 5:52 PM AKDT (9/24) 1:10 AM AKDT (9/24)
Length of Visible Light 13h 22m
Length of Day
12h 00m
Waxing Gibbous, 72% of the Moon is Illuminated
Sep 24
Waxing Gibbous
Sep 29
Full
Oct 7
Last Quarter
Oct 15
New
Oct 21
First Quarter

Hourly Weather History & Observations

Time (AKDT) Temp. Windchill Dew Point Humidity Pressure Visibility Wind Dir Wind Speed Gust Speed Precip Events Conditions
12:23 AM 46.4 °F 40.4 °F 37.4 °F 71% 29.82 in 10.0 mi SW 13.8 mph - N/A   Mostly Cloudy
12:53 AM 46.9 °F - 37.9 °F 71% 29.83 in 10.0 mi SW 11.5 mph - N/A   Mostly Cloudy
1:05 AM 46.4 °F 41.1 °F 37.4 °F 71% 29.84 in 10.0 mi SW 11.5 mph - N/A   Scattered Clouds
1:53 AM 46.0 °F - 37.0 °F 71% 29.85 in 10.0 mi North - - N/A   Clear
2:53 AM 45.0 °F 38.9 °F 36.0 °F 71% 29.86 in 10.0 mi SW 12.7 mph - N/A   Clear
3:31 AM 46.4 °F 41.1 °F 35.6 °F 66% 29.86 in 10.0 mi SW 11.5 mph - N/A   Mostly Cloudy
3:46 AM 44.6 °F 39.7 °F 35.6 °F 71% 29.86 in 10.0 mi SW 9.2 mph - N/A   Scattered Clouds
3:53 AM 45.0 °F 39.7 °F 36.0 °F 71% 29.86 in 10.0 mi SW 10.4 mph - N/A   Scattered Clouds
4:53 AM 45.0 °F 38.5 °F 35.1 °F 68% 29.88 in 10.0 mi SW 13.8 mph - N/A   Clear
5:53 AM 45.0 °F 39.3 °F 35.1 °F 68% 29.89 in 10.0 mi SW 11.5 mph - N/A   Clear
6:53 AM 43.0 °F 40.3 °F 36.0 °F 76% 29.91 in 10.0 mi SW 4.6 mph - N/A   Clear
7:53 AM 39.9 °F - 34.0 °F 79% 29.91 in 10.0 mi Calm Calm - N/A   Scattered Clouds
8:53 AM 39.0 °F 34.8 °F 33.1 °F 79% 29.93 in 10.0 mi East 5.8 mph - N/A   Scattered Clouds
9:53 AM 45.0 °F 42.6 °F 36.0 °F 71% 29.92 in 10.0 mi ENE 4.6 mph - N/A   Clear
10:53 AM 46.0 °F 41.9 °F 37.9 °F 73% 29.93 in 10.0 mi ENE 8.1 mph - N/A   Scattered Clouds
11:53 AM 46.0 °F 41.9 °F 37.9 °F 73% 29.92 in 10.0 mi East 8.1 mph - N/A   Mostly Cloudy
12:53 PM 48.0 °F - 37.9 °F 68% 29.91 in 10.0 mi East 10.4 mph - N/A   Scattered Clouds
1:53 PM 50.0 °F - 36.0 °F 59% 29.90 in 10.0 mi ENE 6.9 mph - N/A   Mostly Cloudy
2:53 PM 52.0 °F - 37.0 °F 57% 29.89 in 10.0 mi Variable 4.6 mph - N/A   Mostly Cloudy
3:53 PM 51.1 °F - 36.0 °F 56% 29.88 in 10.0 mi East 4.6 mph - N/A   Overcast
4:53 PM 51.1 °F - 39.0 °F 63% 29.88 in 10.0 mi SE 10.4 mph - 0.00 in Rain Light Rain
5:53 PM 50.0 °F - 34.0 °F 54% 29.86 in 10.0 mi SE 10.4 mph 21.9 mph 0.00 in   Overcast
6:53 PM 48.9 °F - 36.0 °F 61% 29.84 in 10.0 mi ESE 8.1 mph - N/A   Overcast
7:53 PM 48.9 °F - 37.0 °F 64% 29.83 in 10.0 mi SE 10.4 mph 20.7 mph N/A   Overcast
8:53 PM 48.9 °F - 36.0 °F 61% 29.81 in 10.0 mi East 12.7 mph - N/A   Overcast
9:53 PM 48.9 °F - 36.0 °F 61% 29.79 in 10.0 mi ENE 8.1 mph - N/A   Overcast
10:53 PM 48.0 °F - 39.0 °F 71% 29.78 in 10.0 mi ENE 11.5 mph - 0.00 in Rain Light Rain
11:53 PM 48.9 °F - 37.9 °F 66% 29.75 in 10.0 mi ENE 12.7 mph - 0.00 in   Overcast